This is the latest recevied weather packets stored in our database for station/object KC3JUG-3. If no packets are shown the sender has not sent any weather packets the latest 10 day(s).
| Time | Temp. | Humidity | Pressure | Rain* | Wind** | Luminosity | Snow |
|---|---|---|---|---|---|---|---|
| 1777891550 | 8.33° C | 58% | 1015.6 hPa | 0 mm | - | - | - |
| 1777890945 | 8.89° C | 56% | 1015.7 hPa | 0 mm | - | - | - |
| 1777890345 | 8.89° C | 54% | 1015.6 hPa | 0 mm | - | - | - |
| 1777889446 | 9.44° C | 52% | 1015.7 hPa | 0 mm | - | - | - |
| 1777886746 | 11.11° C | 47% | 1015.6 hPa | 0 mm | - | - | - |
| 1777885255 | 11.11° C | 46% | 1015.7 hPa | 0 mm | - | - | - |
| 1777884647 | 11.11° C | 47% | 1015.8 hPa | 0 mm | - | - | - |
| 1777882553 | 10.56° C | 48% | 1015.8 hPa | 0 mm | - | - | - |
| 1777881649 | 10.56° C | 48% | 1015.8 hPa | 0 mm | - | - | - |
| 1777881050 | 11.11° C | 48% | 1015.9 hPa | 0 mm | - | - | - |
| 1777880149 | 11.11° C | 47% | 1015.9 hPa | 0 mm | - | - | - |
| 1777879248 | 11.67° C | 46% | 1015.9 hPa | 0 mm | - | - | - |
| 1777877165 | 11.67° C | 46% | 1015.9 hPa | 0 mm | - | - | - |
| 1777876267 | 11.67° C | 47% | 1015.8 hPa | 0 mm | - | - | - |
| 1777873551 | 11.67° C | 46% | 1015.9 hPa | 0 mm | - | - | - |
| 1777872948 | 11.67° C | 46% | 1015.9 hPa | 0 mm | - | - | - |
| 1777872661 | 11.67° C | 46% | 1015.9 hPa | 0 mm | - | - | - |
| 1777871147 | 12.22° C | 46% | 1016 hPa | 0 mm | - | - | - |
| 1777869648 | 11.67° C | 46% | 1016 hPa | 0 mm | - | - | - |
| 1777866650 | 11.67° C | 47% | 1015.7 hPa | 0 mm | - | - | - |
| 1777866047 | 11.67° C | 46% | 1015.7 hPa | 0 mm | - | - | - |
| 1777865457 | 11.67° C | 46% | 1015.6 hPa | 0 mm | - | - | - |
| 1777863653 | 11.67° C | 47% | 1015.5 hPa | 0 mm | - | - | - |
| 1777862753 | 11.67° C | 47% | 1015.4 hPa | 0 mm | - | - | - |
| 1777860052 | 11.11° C | 49% | 1015.6 hPa | 0 mm | - | - | - |
* Rain latest hour (hover to see other rain measurements)
** Current wind speed in m/s (hover to see current wind gust speed)